Hourly Data Report for March 24, 2015

All times are specified in Local Standard Time (LST). Add 1 hour to adjust for Daylight Saving Time where and when it is observed.

MIRAMICHI RCS
NEW BRUNSWICK

47°00'34.000" N
65°27'54.000" W
33.00 m
8100989
71744
ACQ

Download Data

Hourly Data (March 2015)
Hourly Data Report for March 24, 2015
TIME Temp Definition
°C
Dew Point Definition
°C
Rel Hum Definition
%
Wind Dir Definition
10's deg

Wind Spd Definition
km/h
Visibility Definition
km
Stn Press Definition
kPa
Hmdx Definition


Wind Chill Definition


Weather Definition


00:00 -8.1 -12.2 72 27 11   101.23   -13 LegendNANA
01:00 -9.0 -12.6 75 28 7   101.29   -13 LegendNANA
02:00 -10.7 -13.9 77 25 5   101.38   -14 LegendNANA
03:00 -10.2 -12.8 81 27 6   101.46   -14 LegendNANA
04:00 -14.4 -16.8 82 28 2   101.51   -16 LegendNANA
05:00 -10.7 -13.0 83 29 2   101.59   -12 LegendNANA
06:00 -10.3 -12.7 82 28 5   101.71   -13 LegendNANA
07:00 -8.4 -11.7 77 32 5   101.76   -11 LegendNANA
08:00 -5.4 -11.9 60 35 7   101.81   -9 LegendNANA
09:00 -3.5 -11.9 52 36 6   101.87   -6 LegendNANA
10:00 -1.6 -11.8 46 32 7   101.94   -4 LegendNANA
11:00 -0.8 -11.3 45 14 2   101.97   -1 LegendNANA
12:00 0.9 -9.9 44 13 3   101.94     LegendNANA
13:00 1.7 -9.7 43 8 7   101.90     LegendNANA
14:00 2.1 -12.0 34 22 8   101.85     LegendNANA
15:00 2.8 -11.7 33 22 10   101.81     LegendNANA
16:00 3.9 -11.1 33 22 7   101.76     LegendNANA
17:00 3.6 -12.0 31 23 8   101.74     LegendNANA
18:00 3.0 -10.9 35 22 5   101.75     LegendNANA
19:00 -2.3 -7.2 69 4 11   101.84   -6 LegendNANA
20:00 -4.2 -8.3 73 4 7   101.94   -7 LegendNANA
21:00 -6.1 -8.7 82 2 3   101.96   -8 LegendNANA
22:00 -11.1 -14.1 79 3 4   101.94   -14 LegendNANA
23:00 -10.1 -11.8 87   0   101.94     LegendNANA

Notes on Data Quality.

Legend

  • E = Estimated
  • M = Missing
  • NA = Not Available
Date modified: